www.pogodaiklimat.ru
ПОГОДА в Лаукансаари
Время
(UTC), дата
13 9.10
14 9.10
15 9.10
16 9.10
17 9.10
18 9.10
19 9.10
20 9.10
21 9.10
22 9.10
23 9.10
00 10.10
01 10.10
02 10.10
03 10.10
04 10.10
05 10.10
06 10.10
07 10.10
08 10.10
09 10.10
10 10.10
11 10.10
12 10.10
13 10.10
14 10.10
15 10.10
16 10.10
17 10.10
18 10.10
19 10.10
20 10.10
21 10.10
22 10.10
23 10.10
00 11.10
01 11.10
02 11.10
03 11.10
04 11.10
05 11.10
06 11.10
07 11.10
08 11.10
09 11.10
10 11.10
11 11.10
12 11.10
13 11.10
14 11.10
15 11.10
16 11.10
17 11.10
18 11.10
19 11.10
20 11.10
21 11.10
22 11.10
23 11.10
00 12.10
01 12.10
02 12.10
03 12.10
04 12.10
05 12.10
06 12.10
07 12.10
08 12.10
09 12.10
10 12.10
11 12.10
12 12.10
13 12.10
14 12.10
15 12.10
16 12.10
17 12.10
18 12.10
19 12.10
20 12.10
21 12.10
22 12.10
23 12.10
00 13.10
01 13.10
02 13.10
03 13.10
04 13.10
05 13.10
06 13.10
07 13.10
08 13.10
09 13.10
10 13.10
11 13.10
12 13.10
13 13.10
14 13.10
15 13.10
16 13.10
17 13.10
18 13.10
19 13.10
20 13.10
21 13.10
22 13.10
23 13.10
00 14.10
01 14.10
02 14.10
03 14.10
04 14.10
05 14.10
06 14.10
07 14.10
08 14.10
09 14.10
10 14.10
11 14.10
12 14.10
13 14.10
14 14.10
15 14.10
16 14.10
17 14.10
18 14.10
19 14.10
20 14.10
21 14.10
22 14.10
23 14.10
00 15.10
01 15.10
02 15.10
03 15.10
04 15.10
05 15.10
06 15.10
07 15.10
08 15.10
09 15.10
10 15.10
11 15.10
12 15.10
13 15.10
14 15.10
15 15.10
16 15.10
17 15.10
18 15.10
19 15.10
20 15.10
21 15.10
22 15.10
23 15.10
00 16.10
01 16.10
02 16.10
03 16.10
04 16.10
05 16.10
06 16.10
07 16.10
08 16.10
09 16.10
10 16.10
11 16.10
Ветер
(напр.,м/с)
Видим. Явления Облачность Т
(С)
Тd
(С)
f
(%)
Тe
(С)
Тes
(С)
Комфортность P
(гПа)
Po
(гПа)
Тmin
(С)
Tmax
(С)
R
(мм)
R24
(мм)
S
(см)
15 км 9/0 1000 м
[]
+3.9 -2.3 64 1001.3 991.6
22 км ясно +3.5 -2.4 65 1001.6 991.9
27 км 9/0 1000 м
[]
+2.5 -1.1 77 1001.8 992.0
24 км 8/1 1000 м
[]
+0.5 -1.3 88 1002.2 992.4
22 км 9/9 600 м
[]
-0.3 -1.4 92 1002.6 992.7
29 км 9/9 600 м
[]
+1.6 +0.1 90 1002.7 992.8 -3.1 +4.3
21 км 4/0 1000 м
[]
-0.6 -1.2 96 1002.9 993.0
19 км ясно -1.5 -1.8 98 1003.3 993.3
22 км ясно -2.3 -2.3 100 1003.5 993.6
20 км ясно -2.8 -2.9 99 1003.7 993.7
22 км ясно -2.9 -2.9 100 1003.5 993.5
20 км ясно -3.0 -3.1 99 1003.6 993.6
20 км ясно -3.3 -3.5 99 1003.5 993.5
23 км ясно -3.4 -3.6 99 1003.6 993.6
19 км 1/0
[]
-3.5 -3.7 99 1003.5 993.5
18 км 10/0
[]
-2.4 -2.5 99 1003.3 993.3
21 км 9/3 <50 м
[]
-1.9 -2.0 99 1003.2 993.3
18 км 9/9 50 м
[]
-1.3 -1.3 100 1003.2 993.3 -3.6 +1.5 <0.5
14 км 9/5 50 м
[]
+0.1 +0.1 100 1003.0 993.1
14 км 9/4 1000 м
[]
+1.8 +1.8 100 1002.9 993.1
22 км 9/0 1000 м
[]
+3.6 +1.5 86 1002.8 993.1
25 км 9/0 1000 м
[]
+4.6 +1.3 79 1002.6 992.9
28 км 10/0
[]
+6.0 +2.0 75 1002.3 992.6
30 км 9/9 1000 м
[]
+5.8 +2.3 78 1001.9 992.2
29 км 9/1 1000 м
[]
+6.0 +2.2 77 1001.7 992.1
30 км 9/1 1000 м
[]
+5.5 +2.7 82 1001.8 992.2
24 км 9/9 600 м
[]
+4.3 +2.7 89 1001.8 992.0
27 км 10/10 300 м
[]
+3.4 +2.5 94 1001.9 992.1
30 км в посл. час осадки 10/0 300 м
[]
+3.9 +3.0 94 1001.6 991.9
27 км {ливн. осадки, туман} 10/0 300 м
[]
+4.2 +3.3 94 1001.8 992.0 -1.2 +6.3
22 км слаб. ливневой дождь 10/0 200 м
[]
+4.4 +3.7 95 1001.8 992.1
26 км 10/0 300 м
[]
+4.4 +3.9 97 1001.6 991.9
18 км {ливн. осадки, морось} 10/0 200 м
[]
+4.8 +4.3 97 1001.4 991.7
15 км 9/9 100 м
[]
+4.8 +4.2 96 1001.3 991.6
15 км 10/10 100 м
[]
+4.9 +4.4 97 1001.1 991.4
12 км {ливн. осадки, морось} 10/0 100 м
[]
+4.7 +4.6 99 1001.2 991.5
14 км 10/0 100 м
[]
+4.8 +4.3 97 1000.9 991.2
12 км 10/10 100 м
[]
+5.0 +4.5 97 1000.9 991.2
6000 м ливневой дождь 10/0 100 м
[]
+5.1 +5.1 100 1000.7 991.0 0.3
5000 м в посл. час морось 10/0 50 м
[]
+5.2 +5.2 100 1000.5 990.8
4800 м дымка 10/0 50 м
[]
+5.3 +5.3 100 1000.2 990.5
7000 м в посл. час снег {ливн. осадки, дождь} 10/0 50 м
[]
+5.9 +5.9 100 1000.2 990.5 +4.1 +5.9 <0.5
6000 м слаб. морось 10/0 50 м
[]
+6.3 +6.3 100 1000.0 990.3
11 км слаб. морось 10/0 100 м
[]
+6.9 +6.9 100 999.8 990.2 0.1
9000 м ливневой дождь 10/0 100 м
[]
+7.7 +7.6 99 999.6 990.0 0.4
14 км в посл. час морось 10/10 100 м
[]
+8.2 +7.7 97 999.3 989.8
19 км в посл. час морось 9/9 200 м
[]
+9.1 +8.2 94 999.0 989.5 0.1
30 км ливневой дождь 10/0 300 м
[]
+9.2 +8.0 92 998.6 989.1 0.1
27 км 10/10 300 м
[]
+9.1 +7.9 92 998.6 989.0
23 км слаб. дождь 10/10 300 м
[]
+9.0 +8.0 93 998.3 988.7
5000 м сильн. ливневой дождь 10/10 200 м
[]
+8.5 +8.3 99 998.2 988.6 1
22 км в посл. час дождь 10/9 300 м
[]
+7.9 +7.8 99 998.4 988.8 0.5
16 км 10/10 200 м
[]
+8.1 +8.1 100 998.0 988.4
21 км {ливн. осадки, дождь} 9/9 200 м
[]
+8.3 +8.3 100 997.7 988.1 +5.9 +9.5
18 км 10/10 300 м
[]
+8.1 +7.7 97 997.3 987.8
21 км в посл. час морось 10/10 300 м
[]
+8.3 +7.7 96 996.8 987.3
20 км в посл. час дождь со снегом {ливн. осадки} 9/9 200 м
[]
+8.0 +7.5 97 996.6 987.1 0.2
17 км 9/9 300 м
[]
+7.5 +7.0 97 996.4 986.8
9000 м дымка 8/8 200 м
[]
+7.2 +7.2 100 996.1 986.6
16 км {ливн. осадки, дождь} 9/9 200 м
[]
+7.4 +7.3 99 995.4 985.9
17 км морось 10/0 100 м
[]
+7.7 +7.5 99 994.7 985.1
12 км слаб. дождь 10/0 100 м
[]
+7.7 +7.7 100 993.9 984.3 0.7
19 км морось {дождь} 10/10 100 м
[]
+7.6 +7.6 100 992.4 982.9 0.3
10 км в посл. час морось 10/0 100 м
[]
+7.7 +7.7 100 990.8 981.3
6000 м слаб. дождь 10/0 100 м
[]
+7.8 +7.8 100 989.4 979.9 0.2
12 км дождь {морось} 10/0 100 м
[]
+7.9 +7.9 100 988.2 978.7 +6.7 +8.4 1 <0.5
7000 м дождь 10/0 100 м
[]
+8.0 +8.0 100 986.7 977.3 2
7000 м дождь 10/10 100 м
[]
+8.2 +8.2 100 985.5 976.0 3
9000 м слаб. дождь 10/0 200 м
[]
+8.5 +8.5 100 984.4 975.0 2
12 км слаб. дождь 10/10 200 м
[]
+8.2 +8.1 99 983.7 974.3 1
15 км слаб. дождь 10/10 300 м
[]
+7.9 +7.9 100 983.4 974.0 1
9000 м дождь 10/0 600 м
[]
+7.7 +7.7 100 983.7 974.3 2
10 км дождь 10/10 100 м
[]
+7.7 +7.6 99 984.3 974.8 1
9000 м слаб. дождь 10/0 200 м
[]
+7.3 +7.0 98 985.2 975.8 1
17 км слаб. дождь 10/10 200 м
[]
+7.2 +6.8 97 986.5 977.0 0.9
18 км слаб. дождь 10/0 200 м
[]
+7.2 +6.7 97 987.9 978.5 0.9
5000 м морось 10/0 200 м
[]
+7.2 +6.6 96 989.1 979.6 0.4
25 км в посл. час снег {дождь, морось} 10/0 200 м
[]
+7.0 +6.0 93 990.4 980.9 +7.0 +8.5
30 км 10/10 300 м
[]
+7.1 +6.0 93 991.8 982.3
28 км 10/0 200 м
[]
+6.9 +5.9 93 992.9 983.4
30 км 10/0 300 м
[]
+6.4 +5.3 93 994.0 984.4
30 км 9/9 200 м
[]
+5.7 +4.5 92 994.6 985.0
35 км 10/0 200 м
[]
+5.5 +4.4 93 995.3 985.7
26 км 10/10 300 м
[]
+5.5 +4.2 91 996.0 986.4
30 км 9/9 200 м
[]
+4.9 +3.6 91 996.7 987.0
29 км 9/0 200 м
[]
+4.3 +3.1 92 997.3 987.6
28 км 1/0 300 м
[]
+3.3 +2.4 94 997.6 987.9
18 км 1/0 600 м
[]
+1.5 +1.4 99 997.9 988.2
23 км 8/6 600 м
[]
+1.3 +1.3 100 998.4 988.6
21 км 10/10 600 м
[]
+2.7 +2.7 100 998.9 989.2 +1.0 +7.2 <0.5
35 км 9/9 600 м
[]
+4.7 +3.8 94 999.1 989.4
26 км 10/0 300 м
[]
+5.1 +3.4 89 999.6 990.0
30 км 10/0 300 м
[]
+5.5 +3.8 89 1000.1 990.5
35 км слаб. морось 10/0 200 м
[]
+5.8 +4.2 89 1000.6 990.9
29 км в посл. час морось 10/0 200 м
[]
+6.0 +4.8 92 1001.0 991.3
17 км ливневой дождь 10/0 300 м
[]
+5.9 +5.0 94 1001.7 992.0 0.2
3300 м дождь 10/0 300 м
[]
+5.8 +5.5 98 1002.3 992.6 0.4
5000 м морось 10/0 100 м
[]
+5.8 +5.7 99 1003.1 993.4 2
27 км в посл. час дождь со снегом {ливн. осадки} 10/0 200 м
[]
+4.9 +4.5 97 1004.3 994.5 0.4
30 км 10/0 200 м
[]
+3.2 +2.3 94 1005.9 996.1
30 км 10/0 200 м
[]
+2.8 +1.4 90 1007.0 997.2
30 км {ливн. осадки, дождь} 10/0 600 м
[]
+2.6 +1.0 89 1008.0 998.2 +2.6 +6.2
30 км ясно +1.1 +0.4 95 1008.9 999.0
30 км 3/0 300 м
[]
+1.5 +1.4 99 1009.8 999.9
23 км 5/0 300 м
[]
+2.0 +1.2 94 1010.5 1000.6
30 км 10/0 600 м
[]
+2.4 +0.9 90 1010.9 1001.0
30 км 3/3 600 м
[]
+1.5 +0.8 95 1011.1 1001.2
35 км 10/0 600 м
[]
+2.7 +1.4 91 1011.5 1001.7
24 км в посл. час осадки 10/0 600 м
[]
+2.7 +1.4 91 1011.5 1001.7
35 км в посл. час морось 9/9 300 м
[]
+2.6 +1.4 92 1011.3 1001.4
27 км {ливн. осадки, морось} 9/0 600 м
[]
+2.4 +1.3 92 1011.3 1001.4
21 км 10/0 600 м
[]
+2.1 +1.8 98 1011.2 1001.3
18 км 10/0 300 м
[]
+2.1 +2.1 100 1011.0 1001.1
30 км {ливн. осадки, морось} 10/0 600 м
[]
+2.8 +2.7 99 1011.0 1001.2 +0.7 +2.8 <0.5
27 км 9/0 600 м
[]
+3.5 +2.4 92 1010.5 1000.6
30 км 9/0 600 м
[]
+3.8 +2.2 89 1010.9 1001.1
30 км 10/10 300 м
[]
+4.4 +2.0 84 1010.5 1000.7
30 км 10/0 600 м
[]
+4.5 +2.1 84 1010.0 1000.2
28 км 10/10 300 м
[]
+3.8 +1.5 85 1009.6 999.8
27 км 10/0 600 м
[]
+3.7 +1.6 86 1009.1 999.2
30 км 10/0 600 м
[]
+4.1 +1.8 85 1009.1 999.3
35 км 10/0 600 м
[]
+3.9 +1.4 84 1009.2 999.4
30 км 10/0 600 м
[]
+3.4 +1.2 85 1009.7 999.9
30 км 10/0 600 м
[]
+3.1 +1.2 87 1010.4 1000.6
25 км 10/0 600 м
[]
+2.8 +0.3 84 1011.1 1001.2
30 км в посл. час снег {ливн. осадки, туман} 10/0 600 м
[]
+2.2 +0.6 89 1012.0 1002.2 +2.2 +4.8
35 км 10/0 600 м
[]
+2.1 -0.2 85 1012.8 1002.9
25 км 10/0 600 м
[]
+1.8 -0.1 87 1013.8 1003.8
27 км 3/0 600 м
[]
+0.6 -0.9 90 1014.4 1004.4
29 км 6/0 1000 м
[]
-0.2 -1.0 94 1015.2 1005.2
28 км 9/0 1000 м
[]
-1.3 -1.3 100 1015.9 1005.9
29 км 10/0 1000 м
[]
+1.3 -1.0 85 1016.5 1006.5
30 км 10/10 600 м
[]
+1.5 -0.8 85 1017.1 1007.1
30 км 6/6 600 м
[]
+1.1 -0.8 87 1017.9 1007.9
30 км 1/0 300 м
[]
+0.6 -0.6 92 1018.5 1008.5
29 км 8/0 300 м
[]
+0.6 -0.2 94 1019.1 1009.1
27 км ясно -0.5 -1.0 96 1019.9 1009.8
30 км 3/3 300 м
[]
-0.4 -0.4 100 1020.5 1010.5 -1.4 +2.2 <0.5
28 км 9/9 200 м
[]
+1.7 +0.1 89 1021.2 1011.2
26 км 9/9 200 м
[]
+2.2 +0.3 87 1022.1 1012.1
30 км ясно +3.7 +0.5 80 1022.5 1012.6
35 км 1/0 300 м
[]
+3.6 +0.2 78 1022.9 1013.0
30 км 1/0 300 м
[]
+4.2 +0.2 75 1023.3 1013.4
28 км ясно +4.4 -0.6 70 1023.6 1013.7
30 км ясно +4.1 -0.8 70 1023.8 1013.8
30 км ясно +2.1 -0.2 85 1024.1 1014.1
30 км 6/0
[]
-0.1 -0.8 95 1024.2 1014.1
25 км 9/0
[]
-0.6 -0.9 98 1024.7 1014.5
24 км 5/0
[]
-0.7 -0.8 99 1024.8 1014.7
20 км 9/0
[]
-1.3 -1.3 100 1024.5 1014.4 -1.3 +4.9
16 км 10/0
[]
-1.3 -1.3 100 1024.5 1014.3
15 км 9/0
[]
-0.7 -0.7 100 1024.7 1014.6
16 км 1/0
[]
-0.6 -0.6 100 1024.7 1014.5
14 км 5/0
[]
-0.5 -0.5 100 1024.8 1014.7
15 км 6/6
[]
-0.2 -0.2 100 1024.4 1014.3
24 км 6/0
[]
+0.7 +0.7 100 1024.0 1013.9
27 км 9/0
[]
+0.9 +0.1 94 1023.7 1013.7
30 км 9/0
[]
+1.1 -0.1 92 1023.4 1013.4
23 км 10/0 2000 м
[]
+1.3 0.0 91 1023.0 1012.9
28 км 10/0 2000 м
[]
+1.8 0.0 88 1022.4 1012.3
27 км 10/0 1500 м
[]
+2.1 -0.1 85 1021.8 1011.8
19 км слаб. дождь {морось} 10/0 300 м
[]
+1.8 +0.8 93 1021.6 1011.6 -1.5 +2.4 0.1 <0.5
14 км слаб. дождь 10/0 100 м
[]
+1.4 +1.0 97 1021.1 1011.1 0.4
16 км слаб. дождь 10/0 100 м
[]
+1.3 +1.0 98 1020.5 1010.5 0.6
8000 м дождь 10/0 100 м
[]
+1.3 +1.0 98 1019.8 1009.8 0.6
29 км морось 10/0 100 м
[]
+2.3 +1.9 97 1018.8 1008.8 0.2
28 км слаб. дождь 10/0 200 м
[]
+2.8 +2.1 95 1018.3 1008.3 0.2
Местоположение метеостанции Лаукансаари (Финляндия): широта 61.80 долгота 29.32 высота над уровнем моря 78 м.
В архиве по умолчанию представлена погода в Лаукансаари за последнюю неделю. Архивные данные за месяц целиком и за предыдущие месяцы, начиная с января 2011 года, Вы можете получить, выбрав интересующий диапазон дат из раскрывающегося списка и нажав кнопку "Найти!".
*Определитесь, кто Вы:
Внимание! Время в таблицах - всемирное. Для получения местного времени необходимо прибавить поправку, которая равна 1 ч.
Смотрите также архив погоды в соседних городах и на ближайших метеорологических станциях:
Партнеры нашего сайта:      
Пояснения к столбцам:
  • Ветер - указаны скорость ветра в м/с - средняя за 10 мин, порывы в срок и между сроками (в фигурных скобках) и направление, откуда дует ветер: С - северный,
  • СВ - северо-восточный, В - восточный, ЮВ - юго-восточный, Ю - южный, ЮЗ - юго-западный, З - западный, СЗ - северо-западный.
  • Видимость - горизонтальная дальность видимости в метрах или километрах. При видимости от 1 до 10 км при отсутствии осадков обычно наблюдается дымка, при ухудшении видимости до 1 км и менее - туман. В сухую погоду видимость может ухудшаться дымом, пылью или мглою.
  • Явления - указаны атмосферные явления, наблюдавшиеся в срок или в последний час перед сроком; фигурными скобками обозначены явления, наблюдавшиеся между сроками (за 1-3 часа до срока); квадратными скобками обозначены град или гололедные отложения с указанием их диаметра в мм.
  • Облачность - указаны через наклонную черту общая и нижняя облачность в баллах и высота нижней границы облаков в метрах; квадратными скобками обозначены формы облаков: Ci - перистые, Cs - перисто-слоистые, Cc - перисто-кучевые, Ac - высококучевые, As - высокослоистые, Sc - слоисто-кучевые, Ns - слоисто-дождевые, Cu - кучевые, Cb - кучево-дождевые. Подробнее классификацию облаков см. в Атласе облаков (PDF).
  • T - Температура воздуха - температура, измеренная на высоте 2 м над землей.
  • Td - Температура точки росы - температура, при понижении до которой содержащийся в воздухе водяной пар достигнет насыщения.
  • f - Относительная влажность воздуха - влажноcть воздуха, измеренная на высоте 2 м над землей.
  • Te - Эффективная температура - температура, которую ощущает одетый по сезону человек в тени. Характеристика душности погоды. При расчете учитывается влияние влажности воздуха и скорости ветра на теплоощущения человека.
  • Tes - Эффективная температура на солнце - температура, которую ощущает человек, с поправкой на солнечный нагрев. Характеристика знойности погоды. Зависит от высоты солнца над горизонтом, облачности и скорости ветра. Ночью, в пасмурную погоду, а также при ветре 12 м/с и более поправка равна нулю.
  • P - Атмосферное давление - приведенное к уровню моря атмосферное давление.
  • Po - Атмосферное давление - измеренное на уровне метеостанции атмосферное давление.
  • Tmin - Минимальная температура - минимум температуры воздуха на высоте 2 м над землей.
  • Tmax - Максимальная температура - максимум температуры воздуха на высоте 2 м над землей.
  • R - Количество осадков - Количество выпавших осадков за период времени, мм. При наведении курсора мыши на число - период времени, за который выпало указанное количество осадков.
  • R24 - Количество осадков - Количество выпавших осадков за 24 часа, мм.
  • S - Снежный покров - Высота снежного покрова, см. При наведении курсора мыши на число - состояние снежного покрова и степень покрытия местности в баллах.